User: anonymous   Login
Location: Miami, Florida
(25.6830°N, 80.1700°W)
Time: 19:16:56
(UTC-04:00)
Language:

Envisat - Orbit

View from above orbital plane
View from above orbital plane
View from above satellite
View from above satellite

Ground track
Ground track

The orbit data is extracted from the following two-line orbital elements,

1 27386U 02009A   17325.37269753  .00000006  00000-0  15756-4 0  9991
2 27386  98.2128   3.9324 0001440  83.2182 276.9174 14.37908833823669
Epoch (UTC): 21 November 2017 08:56:41
Eccentricity: 0.0001440
inclination: 98.2128°
perigee height: 764 km
apogee height: 766 km
right ascension of ascending node: 3.9324°
argument of perigee: 83.2182°
revolutions per day: 14.37908833
mean anomaly at epoch: 276.9174°
orbit number at epoch: 82366

The dashed part of the orbit path shows where the satellite is in the earth's shadow,  

DLR